Year,Month,Day,Hour,Minute,Value (Times are PST for windspeed in km/hr)
2014,02,18,00,00,0.00
2014,02,18,00,01,1.00
2014,02,18,00,02,0.80
2014,02,18,00,03,2.10
2014,02,18,00,04,2.00
2014,02,18,00,05,1.80
2014,02,18,00,06,2.40
2014,02,18,00,07,1.00
2014,02,18,00,08,2.60
2014,02,18,00,09,0.80
2014,02,18,00,10,0.90
2014,02,18,00,11,0.70
2014,02,18,00,12,0.40
2014,02,18,00,13,0.20
2014,02,18,00,14,0.40
2014,02,18,00,15,0.20
2014,02,18,00,16,0.80
2014,02,18,00,17,1.20
2014,02,18,00,18,0.90
2014,02,18,00,19,1.70
2014,02,18,00,20,2.00
2014,02,18,00,21,0.90
2014,02,18,00,22,1.70
2014,02,18,00,23,0.60
2014,02,18,00,24,0.20
2014,02,18,00,25,2.20
2014,02,18,00,26,2.90
2014,02,18,00,27,1.40
2014,02,18,00,28,1.30
2014,02,18,00,29,3.50
2014,02,18,00,30,2.70
2014,02,18,00,31,0.90
2014,02,18,00,32,1.70
2014,02,18,00,33,0.70
2014,02,18,00,34,1.90
2014,02,18,00,35,0.40
2014,02,18,00,36,1.60
2014,02,18,00,37,1.20
2014,02,18,00,38,2.50
2014,02,18,00,39,0.50
2014,02,18,00,40,0.00
2014,02,18,00,41,2.10
2014,02,18,00,42,0.50
2014,02,18,00,43,0.10
2014,02,18,00,44,0.00
2014,02,18,00,45,0.00
2014,02,18,00,46,0.00
2014,02,18,00,47,0.00
2014,02,18,00,48,0.80
2014,02,18,00,49,0.00
2014,02,18,00,50,0.70
2014,02,18,00,51,1.70
2014,02,18,00,52,0.50
2014,02,18,00,53,0.90
2014,02,18,00,54,0.20
2014,02,18,00,55,0.00
2014,02,18,00,56,0.10
2014,02,18,00,57,0.90
2014,02,18,00,58,1.30
2014,02,18,00,59,1.00
2014,02,18,01,00,0.20
2014,02,18,01,01,1.60
2014,02,18,01,02,0.00
2014,02,18,01,03,1.50
2014,02,18,01,04,1.60
2014,02,18,01,05,2.80
2014,02,18,01,06,1.40
2014,02,18,01,07,1.20
2014,02,18,01,08,1.90
2014,02,18,01,09,0.50
2014,02,18,01,10,0.00
2014,02,18,01,11,0.10
2014,02,18,01,12,2.20
2014,02,18,01,13,0.40
2014,02,18,01,14,1.80
2014,02,18,01,15,1.80
2014,02,18,01,16,1.80
2014,02,18,01,17,0.60
2014,02,18,01,18,0.00
2014,02,18,01,19,0.20
2014,02,18,01,20,0.30
2014,02,18,01,21,1.80
2014,02,18,01,22,0.80
2014,02,18,01,23,0.40
2014,02,18,01,24,0.00
2014,02,18,01,25,0.30
2014,02,18,01,26,0.80
2014,02,18,01,27,0.10
2014,02,18,01,28,3.90
2014,02,18,01,29,3.40
2014,02,18,01,30,2.10
2014,02,18,01,31,4.10
2014,02,18,01,32,5.50
2014,02,18,01,33,6.10
2014,02,18,01,34,4.50
2014,02,18,01,35,1.50
2014,02,18,01,36,1.60
2014,02,18,01,37,1.80
2014,02,18,01,38,0.10
2014,02,18,01,39,0.20
2014,02,18,01,40,2.70
2014,02,18,01,41,0.50
2014,02,18,01,42,1.10
2014,02,18,01,43,3.40
2014,02,18,01,44,2.30
2014,02,18,01,45,0.00
2014,02,18,01,46,0.00
2014,02,18,01,47,0.20
2014,02,18,01,48,0.90
2014,02,18,01,49,3.00
2014,02,18,01,50,3.60
2014,02,18,01,51,2.20
2014,02,18,01,52,1.50
2014,02,18,01,53,0.10
2014,02,18,01,54,2.60
2014,02,18,01,55,1.10
2014,02,18,01,56,1.10
2014,02,18,01,57,2.50
2014,02,18,01,58,2.30
2014,02,18,01,59,2.30
2014,02,18,02,00,3.10
2014,02,18,02,01,2.40
2014,02,18,02,02,4.30
2014,02,18,02,03,5.40
2014,02,18,02,04,8.80
2014,02,18,02,05,7.50
2014,02,18,02,06,4.80
2014,02,18,02,07,12.90
2014,02,18,02,08,12.90
2014,02,18,02,09,12.90
2014,02,18,02,10,10.60
2014,02,18,02,11,6.80
2014,02,18,02,12,5.20
2014,02,18,02,13,7.70
2014,02,18,02,14,4.90
2014,02,18,02,15,3.40
2014,02,18,02,16,8.00
2014,02,18,02,17,7.60
2014,02,18,02,18,6.50
2014,02,18,02,19,6.10
2014,02,18,02,20,3.70
2014,02,18,02,21,5.40
2014,02,18,02,22,4.90
2014,02,18,02,23,0.90
2014,02,18,02,24,1.20
2014,02,18,02,25,0.20
2014,02,18,02,26,2.30
2014,02,18,02,27,3.10
2014,02,18,02,28,6.30
2014,02,18,02,29,3.00
2014,02,18,02,30,2.80
2014,02,18,02,31,5.90
2014,02,18,02,32,5.80
2014,02,18,02,33,0.50
2014,02,18,02,34,3.20
2014,02,18,02,35,5.70
2014,02,18,02,36,3.40
2014,02,18,02,37,5.10
2014,02,18,02,38,5.30
2014,02,18,02,39,7.00
2014,02,18,02,40,3.90
2014,02,18,02,41,6.40
2014,02,18,02,42,5.40
2014,02,18,02,43,2.20
2014,02,18,02,44,8.20
2014,02,18,02,45,5.40
2014,02,18,02,46,9.00
2014,02,18,02,47,10.10
2014,02,18,02,48,7.70
2014,02,18,02,49,2.80
2014,02,18,02,50,5.40
2014,02,18,02,51,10.00
2014,02,18,02,52,5.30
2014,02,18,02,53,7.20
2014,02,18,02,54,5.40
2014,02,18,02,55,7.40
2014,02,18,02,56,5.90
2014,02,18,02,57,9.80
2014,02,18,02,58,11.70
2014,02,18,02,59,10.90
2014,02,18,03,00,8.50
2014,02,18,03,01,10.50
2014,02,18,03,02,10.60
2014,02,18,03,03,12.80
2014,02,18,03,04,11.60
2014,02,18,03,05,11.00
2014,02,18,03,06,9.30
2014,02,18,03,07,5.10
2014,02,18,03,08,5.50
2014,02,18,03,09,11.90
2014,02,18,03,10,13.90
2014,02,18,03,11,10.80
2014,02,18,03,12,8.90
2014,02,18,03,13,7.70
2014,02,18,03,14,4.10
2014,02,18,03,15,10.70
2014,02,18,03,16,11.30
2014,02,18,03,17,9.40
2014,02,18,03,18,10.90
2014,02,18,03,19,13.80
2014,02,18,03,20,7.70
2014,02,18,03,21,12.20
2014,02,18,03,22,7.80
2014,02,18,03,23,4.60
2014,02,18,03,24,5.10
2014,02,18,03,25,3.20
2014,02,18,03,26,5.70
2014,02,18,03,27,6.90
2014,02,18,03,28,6.40
2014,02,18,03,29,7.00
2014,02,18,03,30,9.00
2014,02,18,03,31,10.60
2014,02,18,03,32,4.40
2014,02,18,03,33,11.30
2014,02,18,03,34,12.90
2014,02,18,03,35,8.40
2014,02,18,03,36,4.80
2014,02,18,03,37,8.00
2014,02,18,03,38,10.00
2014,02,18,03,39,9.00
2014,02,18,03,40,10.70
2014,02,18,03,41,8.60
2014,02,18,03,42,8.30
2014,02,18,03,43,5.80
2014,02,18,03,44,5.90
2014,02,18,03,45,6.30
2014,02,18,03,46,8.50
2014,02,18,03,47,9.80
2014,02,18,03,48,6.50
2014,02,18,03,49,7.40
2014,02,18,03,50,11.70
2014,02,18,03,51,9.80
2014,02,18,03,52,6.70
2014,02,18,03,53,3.10
2014,02,18,03,54,16.00
2014,02,18,03,55,5.60
2014,02,18,03,56,8.60
2014,02,18,03,57,10.50
2014,02,18,03,58,12.30
2014,02,18,03,59,7.60
2014,02,18,04,00,9.10
2014,02,18,04,01,4.50
2014,02,18,04,02,5.20
2014,02,18,04,03,2.90
2014,02,18,04,04,9.40
2014,02,18,04,05,9.70
2014,02,18,04,06,8.10
2014,02,18,04,07,12.80
2014,02,18,04,08,9.10
2014,02,18,04,09,9.00
2014,02,18,04,10,7.30
2014,02,18,04,11,6.60
2014,02,18,04,12,9.90
2014,02,18,04,13,10.10
2014,02,18,04,14,10.60
2014,02,18,04,15,7.50
2014,02,18,04,16,3.80
2014,02,18,04,17,6.30
2014,02,18,04,18,4.50
2014,02,18,04,19,15.10
2014,02,18,04,20,13.00
2014,02,18,04,21,8.20
2014,02,18,04,22,8.40
2014,02,18,04,23,9.70
2014,02,18,04,24,9.40
2014,02,18,04,25,7.40
2014,02,18,04,26,3.80
2014,02,18,04,27,7.30
2014,02,18,04,28,6.90
2014,02,18,04,29,9.00
2014,02,18,04,30,4.40
2014,02,18,04,31,10.60
2014,02,18,04,32,6.80
2014,02,18,04,33,14.30
2014,02,18,04,34,3.30
2014,02,18,04,35,4.60
2014,02,18,04,36,7.60
2014,02,18,04,37,7.70
2014,02,18,04,38,5.40
2014,02,18,04,39,12.70
2014,02,18,04,40,8.00
2014,02,18,04,41,8.50
2014,02,18,04,42,5.00
2014,02,18,04,43,5.60
2014,02,18,04,44,1.70
2014,02,18,04,45,12.70
2014,02,18,04,46,13.30
2014,02,18,04,47,12.30
2014,02,18,04,48,8.50
2014,02,18,04,49,4.70
2014,02,18,04,50,4.30
2014,02,18,04,51,7.50
2014,02,18,04,52,6.10
2014,02,18,04,53,5.30
2014,02,18,04,54,7.50
2014,02,18,04,55,6.20
2014,02,18,04,56,1.60
2014,02,18,04,57,4.00
2014,02,18,04,58,10.30
2014,02,18,04,59,12.60
2014,02,18,05,00,17.10
2014,02,18,05,01,15.30
2014,02,18,05,02,10.00
2014,02,18,05,03,9.10
2014,02,18,05,04,14.30
2014,02,18,05,05,17.80
2014,02,18,05,06,20.80
2014,02,18,05,07,18.10
2014,02,18,05,08,19.60
2014,02,18,05,09,19.10
2014,02,18,05,10,15.00
2014,02,18,05,11,14.60
2014,02,18,05,12,15.60
2014,02,18,05,13,14.60
2014,02,18,05,14,17.40
2014,02,18,05,15,16.40
2014,02,18,05,16,16.20
2014,02,18,05,17,14.60
2014,02,18,05,18,20.60
2014,02,18,05,19,18.00
2014,02,18,05,20,19.00
2014,02,18,05,21,21.10
2014,02,18,05,22,15.90
2014,02,18,05,23,16.90
2014,02,18,05,24,19.80
2014,02,18,05,25,15.40
2014,02,18,05,26,13.30
2014,02,18,05,27,12.70
2014,02,18,05,28,12.10
2014,02,18,05,29,16.10
2014,02,18,05,30,12.50
2014,02,18,05,31,8.10
2014,02,18,05,32,12.70
2014,02,18,05,33,8.80
2014,02,18,05,34,6.80
2014,02,18,05,35,6.00
2014,02,18,05,36,5.30
2014,02,18,05,37,8.00
2014,02,18,05,38,5.50
2014,02,18,05,39,4.10
2014,02,18,05,40,10.00
2014,02,18,05,41,4.10
2014,02,18,05,42,7.50
2014,02,18,05,43,10.10
2014,02,18,05,44,5.20
2014,02,18,05,45,5.10
2014,02,18,05,46,5.80
2014,02,18,05,47,3.10
2014,02,18,05,48,2.00
2014,02,18,05,49,5.20
2014,02,18,05,50,3.00
2014,02,18,05,51,3.90
2014,02,18,05,52,13.30
2014,02,18,05,53,5.40
2014,02,18,05,54,1.10
2014,02,18,05,55,2.20
2014,02,18,05,56,5.00
2014,02,18,05,57,6.70
2014,02,18,05,58,10.50
2014,02,18,05,59,5.10
2014,02,18,06,00,8.10
2014,02,18,06,01,10.70
2014,02,18,06,02,7.50
2014,02,18,06,03,4.50
2014,02,18,06,04,4.80
2014,02,18,06,05,10.00
2014,02,18,06,06,10.80
2014,02,18,06,07,12.60
2014,02,18,06,08,9.60
2014,02,18,06,09,9.70
2014,02,18,06,10,14.30
2014,02,18,06,11,6.50
2014,02,18,06,12,11.80
2014,02,18,06,13,11.60
2014,02,18,06,14,11.00
2014,02,18,06,15,12.60
2014,02,18,06,16,12.00
2014,02,18,06,17,7.60
2014,02,18,06,18,10.10
2014,02,18,06,19,10.90
2014,02,18,06,20,13.10
2014,02,18,06,21,5.50
2014,02,18,06,22,8.90
2014,02,18,06,23,13.30
2014,02,18,06,24,7.20
2014,02,18,06,25,6.50
2014,02,18,06,26,9.30
2014,02,18,06,27,8.80
2014,02,18,06,28,5.50
2014,02,18,06,29,4.10
2014,02,18,06,30,13.90
2014,02,18,06,31,10.90
2014,02,18,06,32,12.00
2014,02,18,06,33,7.30
2014,02,18,06,34,12.60
2014,02,18,06,35,12.70
2014,02,18,06,36,17.00
2014,02,18,06,37,12.90
2014,02,18,06,38,17.20
2014,02,18,06,39,15.00
2014,02,18,06,40,12.30
2014,02,18,06,41,12.90
2014,02,18,06,42,14.10
2014,02,18,06,43,16.60
2014,02,18,06,44,12.60
2014,02,18,06,45,9.90
2014,02,18,06,46,8.70
2014,02,18,06,47,13.10
2014,02,18,06,48,10.80
2014,02,18,06,49,7.50
2014,02,18,06,50,9.60
2014,02,18,06,51,9.90
2014,02,18,06,52,9.70
2014,02,18,06,53,8.00
2014,02,18,06,54,10.20
2014,02,18,06,55,13.90
2014,02,18,06,56,11.60
2014,02,18,06,57,11.00
2014,02,18,06,58,8.30
2014,02,18,06,59,10.10
2014,02,18,07,00,11.30
2014,02,18,07,01,12.10
2014,02,18,07,02,11.80
2014,02,18,07,03,15.80
2014,02,18,07,04,8.40
2014,02,18,07,05,13.30
2014,02,18,07,06,6.70
2014,02,18,07,07,12.90
2014,02,18,07,08,9.10
2014,02,18,07,09,7.70
2014,02,18,07,10,8.20
2014,02,18,07,11,11.40
2014,02,18,07,12,7.70
2014,02,18,07,13,9.00
2014,02,18,07,14,8.20
2014,02,18,07,15,11.30
2014,02,18,07,16,8.70
2014,02,18,07,17,7.80
2014,02,18,07,18,8.90
2014,02,18,07,19,12.30
2014,02,18,07,20,9.30
2014,02,18,07,21,8.60
2014,02,18,07,22,8.20
2014,02,18,07,23,10.70
2014,02,18,07,24,9.00
2014,02,18,07,25,9.60
2014,02,18,07,26,9.50
2014,02,18,07,27,9.40
2014,02,18,07,28,7.30
2014,02,18,07,29,5.60
2014,02,18,07,30,7.30
2014,02,18,07,31,7.30
2014,02,18,07,32,6.40
2014,02,18,07,33,9.10
2014,02,18,07,34,9.10
2014,02,18,07,35,8.20
2014,02,18,07,36,7.20
2014,02,18,07,37,7.90
2014,02,18,07,38,5.40
2014,02,18,07,39,7.90
2014,02,18,07,40,6.70
2014,02,18,07,41,6.20
2014,02,18,07,42,4.50
2014,02,18,07,43,7.70
2014,02,18,07,44,9.40
2014,02,18,07,45,7.00
2014,02,18,07,46,7.20
2014,02,18,07,47,6.70
2014,02,18,07,48,5.50
2014,02,18,07,49,5.00
2014,02,18,07,50,8.10
2014,02,18,07,51,7.20
2014,02,18,07,52,7.40
2014,02,18,07,53,7.40
2014,02,18,07,54,6.40
2014,02,18,07,55,9.00
2014,02,18,07,56,10.60
2014,02,18,07,57,7.50
2014,02,18,07,58,9.20
2014,02,18,07,59,7.20
2014,02,18,08,00,9.40
2014,02,18,08,01,8.30
2014,02,18,08,02,7.40
2014,02,18,08,03,8.60
2014,02,18,08,04,8.50
2014,02,18,08,05,12.90
2014,02,18,08,06,11.20
2014,02,18,08,07,6.90
2014,02,18,08,08,7.90
2014,02,18,08,09,6.10
2014,02,18,08,10,5.80
2014,02,18,08,11,9.20
2014,02,18,08,12,7.30
2014,02,18,08,13,6.90
2014,02,18,08,14,8.90
2014,02,18,08,15,8.00
2014,02,18,08,16,9.00
2014,02,18,08,17,7.90
2014,02,18,08,18,5.60
2014,02,18,08,19,8.00
2014,02,18,08,20,10.00
2014,02,18,08,21,9.90
2014,02,18,08,22,7.40
2014,02,18,08,23,7.60
2014,02,18,08,24,6.20
2014,02,18,08,25,6.10
2014,02,18,08,26,4.20
2014,02,18,08,27,6.10
2014,02,18,08,28,8.70
2014,02,18,08,29,8.90
2014,02,18,08,30,5.00
2014,02,18,08,31,6.80
2014,02,18,08,32,6.20
2014,02,18,08,33,9.90
2014,02,18,08,34,9.20
2014,02,18,08,35,8.70
2014,02,18,08,36,6.20
2014,02,18,08,37,8.20
2014,02,18,08,38,8.70
2014,02,18,08,39,6.40
2014,02,18,08,40,7.60
2014,02,18,08,41,9.30
2014,02,18,08,42,8.60
2014,02,18,08,43,5.10
2014,02,18,08,44,5.70
2014,02,18,08,45,8.10
2014,02,18,08,46,8.70
2014,02,18,08,47,7.20
2014,02,18,08,48,8.30
2014,02,18,08,49,9.00
2014,02,18,08,50,9.10
2014,02,18,08,51,9.10
2014,02,18,08,52,10.10
2014,02,18,08,53,6.70
2014,02,18,08,54,6.50
2014,02,18,08,55,7.80
2014,02,18,08,56,10.00
2014,02,18,08,57,8.30
2014,02,18,08,58,4.10
2014,02,18,08,59,8.60
2014,02,18,09,00,8.80
2014,02,18,09,01,8.70
2014,02,18,09,02,7.50
2014,02,18,09,03,5.20
2014,02,18,09,04,3.40
2014,02,18,09,05,3.10
2014,02,18,09,06,4.10
2014,02,18,09,07,5.10
2014,02,18,09,08,5.00
2014,02,18,09,09,5.10
2014,02,18,09,10,3.60
2014,02,18,09,11,6.30
2014,02,18,09,12,6.40
2014,02,18,09,13,9.10
2014,02,18,09,14,7.10
2014,02,18,09,15,8.10
2014,02,18,09,16,5.90
2014,02,18,09,17,9.00
2014,02,18,09,18,9.30
2014,02,18,09,19,9.10
2014,02,18,09,20,10.20
2014,02,18,09,21,11.40
2014,02,18,09,22,12.70
2014,02,18,09,23,5.10
2014,02,18,09,24,9.70
2014,02,18,09,25,5.40
2014,02,18,09,26,3.20
2014,02,18,09,27,5.90
2014,02,18,09,28,9.00
2014,02,18,09,29,11.70
2014,02,18,09,30,10.20
2014,02,18,09,31,8.00
2014,02,18,09,32,7.10
2014,02,18,09,33,11.50
2014,02,18,09,34,6.70
2014,02,18,09,35,8.40
2014,02,18,09,36,8.30
2014,02,18,09,37,7.30
2014,02,18,09,38,9.30
2014,02,18,09,39,11.70
2014,02,18,09,40,9.60
2014,02,18,09,41,7.30
2014,02,18,09,42,9.10
2014,02,18,09,43,7.00
2014,02,18,09,44,10.30
2014,02,18,09,45,10.30
2014,02,18,09,46,8.80
2014,02,18,09,47,12.30
2014,02,18,09,48,8.10
2014,02,18,09,49,6.80
2014,02,18,09,50,12.30
2014,02,18,09,51,8.30
2014,02,18,09,52,5.90
2014,02,18,09,53,6.60
2014,02,18,09,54,12.30
2014,02,18,09,55,9.70
2014,02,18,09,56,8.10
2014,02,18,09,57,6.30
2014,02,18,09,58,6.60
2014,02,18,09,59,3.90
2014,02,18,10,00,4.90
2014,02,18,10,01,5.40
2014,02,18,10,02,5.40
2014,02,18,10,03,6.40
2014,02,18,10,04,7.90
2014,02,18,10,05,9.00
2014,02,18,10,06,5.60
2014,02,18,10,07,6.80
2014,02,18,10,08,6.90
2014,02,18,10,09,7.40
2014,02,18,10,10,6.50
2014,02,18,10,11,7.50
2014,02,18,10,12,6.50
2014,02,18,10,13,7.90
2014,02,18,10,14,10.80
2014,02,18,10,15,13.00
2014,02,18,10,16,6.70
2014,02,18,10,17,7.70
2014,02,18,10,18,6.80
2014,02,18,10,19,8.30
2014,02,18,10,20,4.80
2014,02,18,10,21,5.20
2014,02,18,10,22,5.80
2014,02,18,10,23,7.40
2014,02,18,10,24,7.00
2014,02,18,10,25,5.70
2014,02,18,10,26,7.00
2014,02,18,10,27,9.10
2014,02,18,10,28,5.40
2014,02,18,10,29,8.00
2014,02,18,10,30,8.80
2014,02,18,10,31,5.10
2014,02,18,10,32,5.40
2014,02,18,10,33,6.40
2014,02,18,10,34,7.30
2014,02,18,10,35,4.90
2014,02,18,10,36,7.40
2014,02,18,10,37,5.80
2014,02,18,10,38,6.60
2014,02,18,10,39,5.60
2014,02,18,10,40,4.60
2014,02,18,10,41,7.20
2014,02,18,10,42,5.00
2014,02,18,10,43,5.60
2014,02,18,10,44,4.00
2014,02,18,10,45,4.50
2014,02,18,10,46,3.80
2014,02,18,10,47,4.80
2014,02,18,10,48,8.70
2014,02,18,10,49,5.70
2014,02,18,10,50,4.30
2014,02,18,10,51,6.30
2014,02,18,10,52,7.20
2014,02,18,10,53,7.30
2014,02,18,10,54,5.80
2014,02,18,10,55,10.20
2014,02,18,10,56,11.70
2014,02,18,10,57,4.90
2014,02,18,10,58,4.70
2014,02,18,10,59,3.60
2014,02,18,11,00,3.40
2014,02,18,11,01,4.70
2014,02,18,11,02,5.60
2014,02,18,11,03,6.90
2014,02,18,11,04,5.10
2014,02,18,11,05,3.60
2014,02,18,11,06,1.90
2014,02,18,11,07,5.10
2014,02,18,11,08,2.50
2014,02,18,11,09,2.30
2014,02,18,11,10,1.50
2014,02,18,11,11,3.70
2014,02,18,11,12,0.80
2014,02,18,11,13,1.20
2014,02,18,11,14,1.80
2014,02,18,11,15,3.30
2014,02,18,11,16,1.80
2014,02,18,11,17,1.20
2014,02,18,11,18,0.10
2014,02,18,11,19,0.20
2014,02,18,11,20,0.90
2014,02,18,11,21,0.00
2014,02,18,11,22,0.00
2014,02,18,11,23,0.00
2014,02,18,11,24,0.00
2014,02,18,11,25,0.00
2014,02,18,11,26,0.00
2014,02,18,11,27,0.00
2014,02,18,11,28,0.00
2014,02,18,11,29,0.00
2014,02,18,11,30,0.70
2014,02,18,11,31,0.10
2014,02,18,11,32,0.70
2014,02,18,11,33,0.00
2014,02,18,11,34,0.00
2014,02,18,11,35,0.00
2014,02,18,11,36,0.10
2014,02,18,11,37,0.00
2014,02,18,11,38,0.00
2014,02,18,11,39,0.00
2014,02,18,11,40,0.00
2014,02,18,11,41,0.00
2014,02,18,11,42,0.00
2014,02,18,11,43,0.00
2014,02,18,11,44,1.40
2014,02,18,11,45,2.30
2014,02,18,11,46,1.50
2014,02,18,11,47,3.10
2014,02,18,11,48,4.20
2014,02,18,11,49,3.00
2014,02,18,11,50,1.60
2014,02,18,11,51,5.20
2014,02,18,11,52,6.40
2014,02,18,11,53,6.10
2014,02,18,11,54,5.20
2014,02,18,11,55,7.30
2014,02,18,11,56,7.00
2014,02,18,11,57,4.20
2014,02,18,11,58,10.70
2014,02,18,11,59,6.90
2014,02,18,12,00,5.90
2014,02,18,12,01,9.30
2014,02,18,12,02,4.40
2014,02,18,12,03,8.50
2014,02,18,12,04,11.50
2014,02,18,12,05,8.10
2014,02,18,12,06,6.50
2014,02,18,12,07,5.90
2014,02,18,12,08,9.70
2014,02,18,12,09,5.60
2014,02,18,12,10,8.00
2014,02,18,12,11,6.50
2014,02,18,12,12,4.20
2014,02,18,12,13,3.10
2014,02,18,12,14,1.50
2014,02,18,12,15,5.10
2014,02,18,12,16,6.80
2014,02,18,12,17,4.40
2014,02,18,12,18,2.60
2014,02,18,12,19,1.50
2014,02,18,12,20,1.80
2014,02,18,12,21,4.40
2014,02,18,12,22,1.20
2014,02,18,12,23,5.70
2014,02,18,12,24,4.50
2014,02,18,12,25,6.10
2014,02,18,12,26,3.60
2014,02,18,12,27,4.00
2014,02,18,12,28,3.60
2014,02,18,12,29,5.30
2014,02,18,12,30,3.60
2014,02,18,12,31,0.50
2014,02,18,12,32,0.00
2014,02,18,12,33,0.00
2014,02,18,12,34,1.10
2014,02,18,12,35,0.20
2014,02,18,12,36,0.00
2014,02,18,12,37,0.00
2014,02,18,12,38,0.00
2014,02,18,12,39,0.00
2014,02,18,12,40,0.00
2014,02,18,12,41,0.10
2014,02,18,12,42,0.00
2014,02,18,12,43,0.00
2014,02,18,12,44,0.00
2014,02,18,12,45,0.00
2014,02,18,12,46,0.20
2014,02,18,12,47,1.40
2014,02,18,12,48,3.60
2014,02,18,12,49,1.30
2014,02,18,12,50,1.70
2014,02,18,12,51,0.00
2014,02,18,12,52,0.50
2014,02,18,12,53,0.80
2014,02,18,12,54,2.60
2014,02,18,12,55,1.80
2014,02,18,12,56,0.00
2014,02,18,12,57,0.10
2014,02,18,12,58,3.70
2014,02,18,12,59,5.40
2014,02,18,13,00,1.30
2014,02,18,13,01,0.00
2014,02,18,13,02,0.80
2014,02,18,13,03,0.50
2014,02,18,13,04,0.10
2014,02,18,13,05,0.10
2014,02,18,13,06,0.80
2014,02,18,13,07,2.30
2014,02,18,13,08,2.90
2014,02,18,13,09,2.20
2014,02,18,13,10,4.70
2014,02,18,13,11,2.80
2014,02,18,13,12,0.10
2014,02,18,13,13,0.80
2014,02,18,13,14,2.70
2014,02,18,13,15,5.90
2014,02,18,13,16,9.20
2014,02,18,13,17,5.90
2014,02,18,13,18,6.90
2014,02,18,13,19,6.40
2014,02,18,13,20,6.10
2014,02,18,13,21,8.00
2014,02,18,13,22,10.00
2014,02,18,13,23,5.90
2014,02,18,13,24,4.10
2014,02,18,13,25,7.10
2014,02,18,13,26,6.30
2014,02,18,13,27,9.40
2014,02,18,13,28,11.30
2014,02,18,13,29,4.50
2014,02,18,13,30,5.40
2014,02,18,13,31,7.40
2014,02,18,13,32,6.10
2014,02,18,13,33,8.10
2014,02,18,13,34,7.20
2014,02,18,13,35,11.60
2014,02,18,13,36,12.30
2014,02,18,13,37,8.50
2014,02,18,13,38,10.10
2014,02,18,13,39,17.60
2014,02,18,13,40,9.30
2014,02,18,13,41,12.50
2014,02,18,13,42,10.50
2014,02,18,13,43,14.30
2014,02,18,13,44,11.10
2014,02,18,13,45,9.40
2014,02,18,13,46,9.80
2014,02,18,13,47,11.00
2014,02,18,13,48,19.30
2014,02,18,13,49,17.00
2014,02,18,13,50,8.30
2014,02,18,13,51,4.00
2014,02,18,13,52,6.30
2014,02,18,13,53,9.70
2014,02,18,13,54,7.50
2014,02,18,13,55,9.70
2014,02,18,13,56,8.00
2014,02,18,13,57,12.10
2014,02,18,13,58,7.70
2014,02,18,13,59,6.90
2014,02,18,14,00,7.20
2014,02,18,14,01,5.10
2014,02,18,14,02,7.50
2014,02,18,14,03,7.40
2014,02,18,14,04,9.40
2014,02,18,14,05,8.40
2014,02,18,14,06,2.80
2014,02,18,14,07,3.90
2014,02,18,14,08,3.40
2014,02,18,14,09,6.70
2014,02,18,14,10,7.40
2014,02,18,14,11,4.50
2014,02,18,14,12,5.30
2014,02,18,14,13,8.00
2014,02,18,14,14,4.00
2014,02,18,14,15,5.70
2014,02,18,14,16,7.40
2014,02,18,14,17,10.10
2014,02,18,14,18,5.70
2014,02,18,14,19,4.80
2014,02,18,14,20,4.50
2014,02,18,14,21,7.40
2014,02,18,14,22,5.40
2014,02,18,14,23,5.90
2014,02,18,14,24,9.40
2014,02,18,14,25,6.50
2014,02,18,14,26,4.90
2014,02,18,14,27,3.80
2014,02,18,14,28,3.60
2014,02,18,14,29,3.10
2014,02,18,14,30,2.60
2014,02,18,14,31,3.60
2014,02,18,14,32,2.30
2014,02,18,14,33,3.30
2014,02,18,14,34,6.70
2014,02,18,14,35,1.90
2014,02,18,14,36,2.80
2014,02,18,14,37,3.70
2014,02,18,14,38,5.00
2014,02,18,14,39,4.00
2014,02,18,14,40,2.70
2014,02,18,14,41,2.60
2014,02,18,14,42,5.50
2014,02,18,14,43,3.00
2014,02,18,14,44,4.90
2014,02,18,14,45,7.40
2014,02,18,14,46,5.20
2014,02,18,14,47,7.00
2014,02,18,14,48,5.20
2014,02,18,14,49,4.80
2014,02,18,14,50,3.80
2014,02,18,14,51,4.30
2014,02,18,14,52,5.40
2014,02,18,14,53,5.60
2014,02,18,14,54,3.80
2014,02,18,14,55,3.40
2014,02,18,14,56,3.50
2014,02,18,14,57,7.50
2014,02,18,14,58,3.20
2014,02,18,14,59,3.40
2014,02,18,15,00,2.80
2014,02,18,15,01,4.40
2014,02,18,15,02,2.90
2014,02,18,15,03,3.60
2014,02,18,15,04,2.70
2014,02,18,15,05,3.10
2014,02,18,15,06,3.60
2014,02,18,15,07,5.30
2014,02,18,15,08,2.50
2014,02,18,15,09,5.10
2014,02,18,15,10,2.10
2014,02,18,15,11,2.60
2014,02,18,15,12,3.10
2014,02,18,15,13,4.20
2014,02,18,15,14,3.70
2014,02,18,15,15,4.90
2014,02,18,15,16,5.10
2014,02,18,15,17,5.10
2014,02,18,15,18,4.70
2014,02,18,15,19,5.20
2014,02,18,15,20,4.20
2014,02,18,15,21,4.20
2014,02,18,15,22,3.60
2014,02,18,15,23,4.30
2014,02,18,15,24,3.70
2014,02,18,15,25,2.80
2014,02,18,15,26,3.20
2014,02,18,15,27,4.40
2014,02,18,15,28,3.20
2014,02,18,15,29,3.80
2014,02,18,15,30,4.20
2014,02,18,15,31,4.10
2014,02,18,15,32,4.70
2014,02,18,15,33,3.20
2014,02,18,15,34,3.60
2014,02,18,15,35,4.20
2014,02,18,15,36,2.40
2014,02,18,15,37,2.90
2014,02,18,15,38,2.30
2014,02,18,15,39,0.00
2014,02,18,15,40,0.50
2014,02,18,15,41,2.00
2014,02,18,15,42,1.30
2014,02,18,15,43,1.80
2014,02,18,15,44,1.60
2014,02,18,15,45,2.10
2014,02,18,15,46,2.10
2014,02,18,15,47,0.70
2014,02,18,15,48,1.50
2014,02,18,15,49,2.40
2014,02,18,15,50,3.40
2014,02,18,15,51,0.80
2014,02,18,15,52,0.00
2014,02,18,15,53,1.50
2014,02,18,15,54,2.90
2014,02,18,15,55,2.40
2014,02,18,15,56,0.10
2014,02,18,15,57,0.00
2014,02,18,15,58,1.30
2014,02,18,15,59,1.80
2014,02,18,16,00,0.80
2014,02,18,16,01,2.90
2014,02,18,16,02,2.80
2014,02,18,16,03,4.80
2014,02,18,16,04,4.10
2014,02,18,16,05,4.30
2014,02,18,16,06,5.10
2014,02,18,16,07,7.80
2014,02,18,16,08,4.40
2014,02,18,16,09,5.40
2014,02,18,16,10,4.90
2014,02,18,16,11,3.70
2014,02,18,16,12,3.00
2014,02,18,16,13,5.70
2014,02,18,16,14,2.50
2014,02,18,16,15,2.90
2014,02,18,16,16,1.10
2014,02,18,16,17,4.40
2014,02,18,16,18,3.70
2014,02,18,16,19,3.80
2014,02,18,16,20,0.70
2014,02,18,16,21,0.40
2014,02,18,16,22,3.10
2014,02,18,16,23,6.00
2014,02,18,16,24,5.50
2014,02,18,16,25,12.20
2014,02,18,16,26,7.80
2014,02,18,16,27,7.90
2014,02,18,16,28,12.80
2014,02,18,16,29,10.40
2014,02,18,16,30,4.20
2014,02,18,16,31,3.80
2014,02,18,16,32,8.40
2014,02,18,16,33,13.00
2014,02,18,16,34,15.60
2014,02,18,16,35,8.50
2014,02,18,16,36,8.80
2014,02,18,16,37,7.10
2014,02,18,16,38,8.00
2014,02,18,16,39,8.40
2014,02,18,16,40,8.10
2014,02,18,16,41,9.90
2014,02,18,16,42,8.20
2014,02,18,16,43,14.70
2014,02,18,16,44,13.40
2014,02,18,16,45,11.60
2014,02,18,16,46,11.40
2014,02,18,16,47,8.50
2014,02,18,16,48,11.70
2014,02,18,16,49,13.90
2014,02,18,16,50,9.00
2014,02,18,16,51,12.40
2014,02,18,16,52,10.40
2014,02,18,16,53,8.60
2014,02,18,16,54,12.10
2014,02,18,16,55,13.60
2014,02,18,16,56,12.50
2014,02,18,16,57,13.50
2014,02,18,16,58,6.10
2014,02,18,16,59,6.90
2014,02,18,17,00,12.00
2014,02,18,17,01,11.20
2014,02,18,17,02,5.50
2014,02,18,17,03,8.30
2014,02,18,17,04,9.00
2014,02,18,17,05,7.10
2014,02,18,17,06,8.40
2014,02,18,17,07,7.70
2014,02,18,17,08,6.00
2014,02,18,17,09,5.10
2014,02,18,17,10,4.40
2014,02,18,17,11,5.70
2014,02,18,17,12,5.50
2014,02,18,17,13,7.60
2014,02,18,17,14,4.70
2014,02,18,17,15,5.30
2014,02,18,17,16,12.80
2014,02,18,17,17,9.10
2014,02,18,17,18,5.40
2014,02,18,17,19,6.90
2014,02,18,17,20,5.90
2014,02,18,17,21,9.00
2014,02,18,17,22,6.00
2014,02,18,17,23,7.90
2014,02,18,17,24,9.20
2014,02,18,17,25,7.60
2014,02,18,17,26,10.80
2014,02,18,17,27,6.70
2014,02,18,17,28,2.60
2014,02,18,17,29,2.70
2014,02,18,17,30,7.60
2014,02,18,17,31,8.80
2014,02,18,17,32,3.90
2014,02,18,17,33,1.80
2014,02,18,17,34,3.50
2014,02,18,17,35,4.50
2014,02,18,17,36,4.20
2014,02,18,17,37,10.10
2014,02,18,17,38,5.40
2014,02,18,17,39,5.60
2014,02,18,17,40,4.40
2014,02,18,17,41,2.90
2014,02,18,17,42,7.20
2014,02,18,17,43,8.10
2014,02,18,17,44,8.10
2014,02,18,17,45,7.10
2014,02,18,17,46,15.90
2014,02,18,17,47,12.10
2014,02,18,17,48,6.10
2014,02,18,17,49,14.60
2014,02,18,17,50,12.60
2014,02,18,17,51,7.40
2014,02,18,17,52,7.70
2014,02,18,17,53,10.50
2014,02,18,17,54,10.70
2014,02,18,17,55,12.10
2014,02,18,17,56,10.20
2014,02,18,17,57,14.40